QPF
0.00 0.00 0.00 0.00 0.01 0.01 0.01 0.01 0.00 0.01 0.00 0.00 0.00 0.00 0.00 0.00 0.00 0.00 0.00 0.00 0.00 0.00 0.00 0.00 0.00 0.00 0.01 0.01 0.01 0.01 0.01 0.00 0.00 0.00 0.00 0.00 0.00 0.00 0.00 0.00 0.00 0.00 0.00
0.00 0.00 0.00 0.01 0.01 0.01 0.01 0.01 0.01 0.01 0.00 0.00 0.00 0.00 0.00 0.00 0.00 0.00 0.00 0.00 0.00 0.00 0.00 0.00 0.00 0.01 0.01 0.02 0.03 0.03 0.03 0.02 0.02 0.01 0.00 0.00 0.00 0.01 0.01 0.01 0.01 0.00 0.00
0.00 0.00 0.00 0.00 0.01 0.00 0.00 0.00 0.00 0.00 0.00 0.00 0.00 0.00 0.00 0.00 0.00 0.00 0.00 0.00 0.00 0.00 0.00 0.00 0.00 0.01 0.01 0.02 0.03 0.03 0.04 0.04 0.04 0.03 0.02 0.01 0.01 0.01 0.01 0.02 0.02 0.01 0.01
0.00 0.00 0.00 0.00 0.00 0.00 0.00 0.00 0.00 0.00 0.00 0.00 0.00 0.00 0.00 0.00 0.00 0.00 0.00 0.00 0.00 0.00 0.00 0.00 0.01 0.01 0.01 0.01 0.01 0.02 0.04 0.05 0.05 0.06 0.06 0.05 0.04 0.03 0.03 0.03 0.03 0.03 0.03
0.00 0.00 0.00 0.00 0.00 0.00 0.00 0.00 0.00 0.00 0.00 0.00 0.00 0.00 0.00 0.00 0.00 0.00 0.00 0.00 0.00 0.00 0.00 0.00 0.00 0.00 0.01 0.01 0.01 0.02 0.04 0.06 0.07 0.08 0.08 0.09 0.09 0.09 0.08 0.08 0.07 0.07 0.06
0.00 0.00 0.00 0.00 0.00 0.00 0.00 0.00 0.00 0.00 0.00 0.00 0.00 0.00 0.00 0.00 0.00 0.00 0.00 0.00 0.00 0.00 0.00 0.00 0.00 0.00 0.01 0.02 0.02 0.02 0.04 0.05 0.06 0.08 0.09 0.11 0.12 0.14 0.15 0.16 0.15 0.14 0.13
0.00 0.00 0.00 0.00 0.00 0.00 0.00 0.00 0.00 0.00 0.00 0.00 0.00 0.00 0.00 0.00 0.00 0.00 0.00 0.00 0.00 0.00 0.00 0.00 0.00 0.01 0.02 0.02 0.02 0.02 0.02 0.03 0.05 0.07 0.09 0.11 0.14 0.18 0.22 0.24 0.24 0.23 0.21
0.00 0.00 0.00 0.00 0.00 0.00 0.00 0.00 0.00 0.00 0.00 0.00 0.00 0.00 0.00 0.00 0.00 0.00 0.00 0.00 0.00 0.00 0.00 0.00 0.00 0.01 0.01 0.02 0.02 0.01 0.01 0.02 0.03 0.05 0.07 0.09 0.11 0.14 0.18 0.22 0.24 0.25 0.27
0.00 0.00 0.00 0.00 0.00 0.00 0.00 0.00 0.00 0.00 0.00 0.00 0.00 0.00 0.00 0.00 0.00 0.00 0.00 0.00 0.00 0.00 0.00 0.00 0.00 0.00 0.00 0.00 0.00 0.00 0.01 0.02 0.02 0.03 0.05 0.06 0.08 0.10 0.13 0.17 0.20 0.23 0.26
0.00 0.00 0.00 0.00 0.00 0.00 0.00 0.00 0.00 0.00 0.00 0.00 0.00 0.00 0.00 0.00 0.00 0.00 0.00 0.00 0.00 0.00 0.00 0.00 0.00 0.00 0.00 0.00 0.00 0.00 0.01 0.02 0.02 0.03 0.05 0.07 0.08 0.11 0.15 0.19 0.23 0.27 0.29
0.00 0.00 0.00 0.00 0.00 0.00 0.00 0.00 0.00 0.00 0.00 0.00 0.00 0.00 0.00 0.00 0.00 0.00 0.00 0.00 0.00 0.00 0.00 0.00 0.00 0.00 0.00 0.00 0.00 0.00 0.00 0.01 0.01 0.02 0.03 0.05 0.08 0.11 0.15 0.19 0.22 0.28 0.34
0.00 0.00 0.00 0.00 0.00 0.00 0.00 0.00 0.00 0.00 0.00 0.00 0.00 0.00 0.00 0.00 0.00 0.00 0.00 0.00 0.00 0.00 0.00 0.00 0.00 0.00 0.00 0.00 0.00 0.00 0.00 0.00 0.00 0.00 0.01 0.02 0.04 0.05 0.08 0.11 0.15 0.18 0.24
0.00 0.00 0.00 0.00 0.00 0.00 0.00 0.00 0.00 0.00 0.00 0.00 0.00 0.00 0.00 0.00 0.00 0.00 0.00 0.00 0.00 0.00 0.00 0.00 0.00 0.00 0.00 0.00 0.00 0.00 0.00 0.00 0.00 0.00 0.00 0.00 0.01 0.01 0.02 0.04 0.07 0.10 0.13
0.00 0.00 0.00 0.00 0.00 0.00 0.00 0.00 0.00 0.00 0.00 0.00 0.00 0.00 0.00 0.00 0.00 0.00 0.00 0.00 0.00 0.00 0.00 0.00 0.00 0.00 0.00 0.00 0.00 0.00 0.00 0.00 0.00 0.00 0.00 0.00 0.00 0.00 0.00 0.01 0.01 0.02 0.05
0.00 0.00 0.00 0.00 0.00 0.00 0.00 0.00 0.00 0.00 0.00 0.00 0.00 0.00 0.00 0.00 0.00 0.00 0.00 0.00 0.00 0.00 0.00 0.00 0.00 0.00 0.00 0.00 0.00 0.00 0.00 0.00 0.00 0.00 0.00 0.00 0.00 0.00 0.00 0.00 0.00 0.01 0.01
0.00 0.00 0.00 0.00 0.00 0.00 0.00 0.00 0.00 0.00 0.00 0.00 0.00 0.00 0.00 0.00 0.00 0.00 0.00 0.00 0.00 0.00 0.00 0.00 0.00 0.00 0.00 0.00 0.00 0.00 0.00 0.00 0.00 0.00 0.00 0.00 0.00 0.00 0.00 0.00 0.00 0.00 0.01
0.00 0.00 0.00 0.00 0.00 0.00 0.00 0.00 0.00 0.00 0.00 0.00 0.00 0.00 0.00 0.00 0.00 0.00 0.00 0.00 0.00 0.00 0.00 0.00 0.00 0.00 0.00 0.00 0.00 0.00 0.00 0.00 0.00 0.00 0.00 0.00 0.00 0.01 0.01 0.01 0.01 0.01 0.01
0.00 0.00 0.00 0.00 0.00 0.00 0.00 0.00 0.00 0.00 0.00 0.00 0.00 0.00 0.00 0.00 0.00 0.00 0.00 0.00 0.00 0.00 0.01 0.01 0.01 0.00 0.00 0.00 0.00 0.00 0.00 0.00 0.00 0.00 0.00 0.01 0.01 0.01 0.02 0.02 0.02 0.02 0.03
0.00 0.00 0.00 0.00 0.00 0.00 0.00 0.00 0.00 0.00 0.00 0.00 0.00 0.00 0.00 0.00 0.00 0.00 0.00 0.00 0.00 0.01 0.02 0.02 0.01 0.01 0.00 0.00 0.00 0.00 0.00 0.00 0.00 0.00 0.00 0.01 0.01 0.02 0.03 0.04 0.04 0.05 0.04
0.00 0.00 0.00 0.00 0.00 0.00 0.00 0.00 0.00 0.00 0.00 0.00 0.00 0.00 0.00 0.00 0.00 0.00 0.00 0.00 0.01 0.02 0.02 0.02 0.02 0.02 0.01 0.00 0.00 0.00 0.00 0.00 0.00 0.00 0.00 0.01 0.02 0.03 0.04 0.04 0.03 0.02 0.02
0.00 0.00 0.00 0.00 0.00 0.00 0.00 0.00 0.00 0.00 0.00 0.00 0.00 0.00 0.00 0.00 0.00 0.00 0.01 0.01 0.02 0.03 0.03 0.04 0.05 0.04 0.02 0.01 0.00 0.00 0.01 0.01 0.00 0.01 0.01 0.01 0.01 0.01 0.01 0.00 0.00 0.00 0.01
0.00 0.00 0.00 0.00 0.00 0.00 0.00 0.00 0.00 0.00 0.00 0.00 0.00 0.00 0.00 0.00 0.00 0.00 0.01 0.02 0.03 0.05 0.06 0.08 0.07 0.04 0.01 0.00 0.00 0.01 0.02 0.02 0.02 0.01 0.02 0.01 0.00 0.00 0.00 0.00 0.01 0.02 0.02
0.00 0.00 0.00 0.00 0.00 0.00 0.00 0.00 0.00 0.00 0.00 0.00 0.00 0.00 0.00 0.00 0.00 0.00 0.01 0.02 0.03 0.05 0.06 0.04 0.02 0.01 0.01 0.01 0.01 0.02 0.03 0.03 0.02 0.01 0.02 0.02 0.01 0.01 0.01 0.01 0.02 0.02 0.02
0.00 0.00 0.00 0.00 0.00 0.00 0.00 0.00 0.00 0.00 0.00 0.00 0.00 0.00 0.00 0.00 0.00 0.02 0.03 0.04 0.03 0.02 0.01 0.01 0.01 0.01 0.01 0.01 0.02 0.03 0.03 0.03 0.02 0.01 0.03 0.05 0.02 0.02 0.01 0.01 0.01 0.01 0.02
0.00 0.00 0.00 0.00 0.00 0.00 0.00 0.00 0.00 0.00 0.00 0.00 0.00 0.00 0.00 0.01 0.01 0.04 0.05 0.05 0.02 0.00 0.00 0.01 0.01 0.01 0.01 0.01 0.01 0.02 0.05 0.06 0.04 0.01 0.02 0.05 0.03 0.02 0.02 0.01 0.00 0.02 0.04
0.00 0.00 0.00 0.00 0.00 0.00 0.00 0.00 0.00 0.00 0.00 0.00 0.00 0.00 0.01 0.01 0.03 0.05 0.04 0.02 0.01 0.00 0.01 0.01 0.01 0.00 0.00 0.00 0.01 0.02 0.06 0.11 0.07 0.04 0.01 0.05 0.05 0.05 0.05 0.01 0.01 0.02 0.02
MSLP
1012.00 1012.13 1012.20 1012.24 1012.24 1012.23 1012.21 1012.18 1012.12 1012.03 1011.89 1011.70 1011.46 1011.18 1010.87 1010.55 1010.26 1009.99 1009.77 1009.58 1009.44 1009.32 1009.21 1009.10 1008.98 1008.86 1008.72 1008.59 1008.46 1008.34 1008.24 1008.17 1008.11 1008.09 1008.09 1008.11 1008.16 1008.23 1008.32 1008.42 1008.55 1008.68 1008.84
1012.07 1012.19 1012.27 1012.32 1012.34 1012.34 1012.33 1012.29 1012.22 1012.10 1011.94 1011.72 1011.44 1011.13 1010.78 1010.43 1010.09 1009.77 1009.50 1009.26 1009.06 1008.89 1008.73 1008.58 1008.43 1008.27 1008.10 1007.93 1007.75 1007.58 1007.42 1007.29 1007.18 1007.10 1007.07 1007.06 1007.08 1007.13 1007.19 1007.27 1007.36 1007.47 1007.60
1012.31 1012.43 1012.51 1012.56 1012.59 1012.60 1012.59 1012.54 1012.45 1012.32 1012.12 1011.88 1011.57 1011.23 1010.85 1010.47 1010.08 1009.71 1009.38 1009.08 1008.82 1008.59 1008.39 1008.20 1008.01 1007.82 1007.61 1007.38 1007.15 1006.91 1006.67 1006.45 1006.26 1006.12 1006.01 1005.95 1005.93 1005.94 1005.97 1006.01 1006.07 1006.14 1006.24
1012.70 1012.81 1012.89 1012.94 1012.98 1013.00 1012.98 1012.93 1012.83 1012.67 1012.45 1012.18 1011.86 1011.49 1011.09 1010.67 1010.24 1009.83 1009.44 1009.08 1008.76 1008.47 1008.21 1007.98 1007.75 1007.52 1007.27 1006.99 1006.69 1006.37 1006.04 1005.72 1005.43 1005.19 1005.00 1004.86 1004.78 1004.74 1004.72 1004.72 1004.74 1004.77 1004.82
1013.20 1013.29 1013.36 1013.43 1013.47 1013.50 1013.48 1013.42 1013.31 1013.14 1012.91 1012.62 1012.28 1011.89 1011.47 1011.02 1010.56 1010.11 1009.66 1009.24 1008.86 1008.51 1008.20 1007.92 1007.66 1007.39 1007.09 1006.77 1006.40 1005.99 1005.57 1005.14 1004.74 1004.39 1004.10 1003.87 1003.71 1003.61 1003.54 1003.49 1003.45 1003.42 1003.40
1013.74 1013.82 1013.89 1013.95 1014.01 1014.04 1014.04 1013.98 1013.86 1013.68 1013.45 1013.15 1012.80 1012.41 1011.97 1011.50 1011.01 1010.51 1010.02 1009.54 1009.09 1008.69 1008.33 1008.00 1007.70 1007.39 1007.06 1006.69 1006.26 1005.78 1005.27 1004.74 1004.23 1003.77 1003.37 1003.06 1002.82 1002.64 1002.50 1002.40 1002.29 1002.19 1002.09
1014.26 1014.32 1014.40 1014.47 1014.54 1014.59 1014.59 1014.55 1014.43 1014.26 1014.02 1013.72 1013.37 1012.98 1012.53 1012.05 1011.54 1011.00 1010.45 1009.92 1009.41 1008.95 1008.54 1008.17 1007.82 1007.48 1007.12 1006.70 1006.23 1005.69 1005.11 1004.50 1003.90 1003.35 1002.86 1002.46 1002.14 1001.89 1001.69 1001.52 1001.34 1001.15 1000.96
1014.72 1014.77 1014.85 1014.94 1015.02 1015.08 1015.10 1015.07 1014.96 1014.79 1014.56 1014.27 1013.93 1013.53 1013.09 1012.60 1012.06 1011.49 1010.90 1010.31 1009.75 1009.23 1008.76 1008.35 1007.96 1007.59 1007.20 1006.76 1006.26 1005.69 1005.06 1004.40 1003.74 1003.11 1002.56 1002.09 1001.71 1001.39 1001.13 1000.88 1000.63 1000.35 1000.05
1015.08 1015.14 1015.22 1015.32 1015.42 1015.49 1015.52 1015.50 1015.41 1015.25 1015.02 1014.74 1014.40 1014.01 1013.57 1013.07 1012.51 1011.91 1011.29 1010.66 1010.04 1009.47 1008.95 1008.49 1008.07 1007.66 1007.25 1006.80 1006.28 1005.70 1005.05 1004.37 1003.68 1003.02 1002.43 1001.91 1001.48 1001.11 1000.79 1000.47 1000.14 999.78 999.38
1015.37 1015.43 1015.51 1015.61 1015.71 1015.79 1015.83 1015.81 1015.72 1015.57 1015.35 1015.07 1014.74 1014.36 1013.91 1013.41 1012.85 1012.23 1011.57 1010.90 1010.25 1009.63 1009.06 1008.55 1008.09 1007.66 1007.23 1006.76 1006.25 1005.67 1005.03 1004.35 1003.67 1003.01 1002.40 1001.86 1001.39 1000.98 1000.60 1000.22 999.83 999.39 998.90
1015.61 1015.66 1015.74 1015.83 1015.93 1016.00 1016.03 1015.99 1015.90 1015.74 1015.52 1015.24 1014.92 1014.54 1014.10 1013.59 1013.03 1012.40 1011.73 1011.03 1010.35 1009.69 1009.08 1008.53 1008.03 1007.57 1007.11 1006.64 1006.13 1005.57 1004.95 1004.30 1003.63 1002.99 1002.38 1001.83 1001.34 1000.89 1000.46 1000.03 999.58 999.07 998.52
1015.82 1015.86 1015.92 1016.00 1016.07 1016.11 1016.12 1016.06 1015.95 1015.77 1015.54 1015.26 1014.93 1014.55 1014.12 1013.62 1013.06 1012.43 1011.75 1011.05 1010.34 1009.66 1009.02 1008.43 1007.89 1007.40 1006.92 1006.44 1005.92 1005.37 1004.78 1004.16 1003.52 1002.90 1002.30 1001.75 1001.23 1000.75 1000.28 999.80 999.29 998.74 998.14
1016.04 1016.06 1016.10 1016.14 1016.16 1016.17 1016.13 1016.04 1015.89 1015.69 1015.44 1015.15 1014.82 1014.44 1014.00 1013.51 1012.96 1012.34 1011.67 1010.97 1010.26 1009.56 1008.90 1008.28 1007.70 1007.17 1006.66 1006.16 1005.64 1005.09 1004.51 1003.91 1003.30 1002.69 1002.10 1001.54 1001.00 1000.48 999.97 999.44 998.88 998.29 997.66
1016.26 1016.26 1016.26 1016.25 1016.23 1016.17 1016.08 1015.94 1015.76 1015.53 1015.25 1014.95 1014.61 1014.22 1013.79 1013.31 1012.77 1012.17 1011.52 1010.83 1010.12 1009.42 1008.74 1008.09 1007.48 1006.91 1006.37 1005.83 1005.28 1004.73 1004.15 1003.56 1002.95 1002.35 1001.75 1001.17 1000.60 1000.04 999.47 998.89 998.29 997.67 997.03
1016.49 1016.46 1016.41 1016.35 1016.26 1016.14 1015.99 1015.80 1015.58 1015.32 1015.02 1014.70 1014.35 1013.96 1013.54 1013.06 1012.53 1011.95 1011.31 1010.64 1009.94 1009.24 1008.55 1007.88 1007.24 1006.63 1006.04 1005.46 1004.88 1004.30 1003.70 1003.10 1002.48 1001.87 1001.25 1000.64 1000.03 999.42 998.80 998.16 997.52 996.87 996.21
1016.70 1016.64 1016.54 1016.42 1016.27 1016.09 1015.88 1015.65 1015.38 1015.09 1014.78 1014.45 1014.09 1013.69 1013.26 1012.79 1012.27 1011.69 1011.07 1010.41 1009.72 1009.02 1008.33 1007.64 1006.97 1006.32 1005.68 1005.06 1004.43 1003.81 1003.18 1002.55 1001.91 1001.27 1000.62 999.97 999.32 998.65 997.97 997.29 996.60 995.92 995.26
1016.87 1016.76 1016.61 1016.44 1016.23 1015.99 1015.74 1015.47 1015.18 1014.87 1014.55 1014.20 1013.83 1013.43 1012.99 1012.51 1011.98 1011.40 1010.78 1010.12 1009.44 1008.75 1008.04 1007.34 1006.65 1005.96 1005.29 1004.61 1003.95 1003.28 1002.61 1001.93 1001.26 1000.58 999.90 999.20 998.50 997.78 997.06 996.33 995.60 994.90 994.22
1016.97 1016.82 1016.63 1016.40 1016.14 1015.86 1015.57 1015.27 1014.96 1014.64 1014.31 1013.97 1013.59 1013.17 1012.72 1012.22 1011.67 1011.08 1010.44 1009.78 1009.09 1008.39 1007.68 1006.97 1006.26 1005.55 1004.84 1004.13 1003.41 1002.70 1001.99 1001.27 1000.56 999.84 999.12 998.38 997.64 996.89 996.12 995.36 994.60 993.88 993.19
1017.00 1016.81 1016.57 1016.29 1015.99 1015.67 1015.36 1015.04 1014.72 1014.41 1014.08 1013.72 1013.33 1012.90 1012.42 1011.89 1011.31 1010.69 1010.03 1009.34 1008.64 1007.94 1007.22 1006.51 1005.79 1005.06 1004.33 1003.59 1002.84 1002.09 1001.34 1000.58 999.83 999.08 998.32 997.56 996.79 996.00 995.21 994.43 993.65 992.91 992.21
1016.96 1016.73 1016.45 1016.13 1015.79 1015.44 1015.11 1014.78 1014.46 1014.14 1013.81 1013.45 1013.05 1012.60 1012.08 1011.51 1010.89 1010.23 1009.53 1008.82 1008.10 1007.39 1006.67 1005.96 1005.24 1004.51 1003.77 1003.01 1002.24 1001.46 1000.67 999.89 999.10 998.32 997.54 996.75 995.96 995.17 994.37 993.57 992.79 992.03 991.32
1016.87 1016.61 1016.28 1015.92 1015.55 1015.18 1014.83 1014.49 1014.16 1013.84 1013.50 1013.13 1012.71 1012.23 1011.68 1011.06 1010.40 1009.69 1008.95 1008.22 1007.48 1006.76 1006.04 1005.34 1004.62 1003.90 1003.16 1002.40 1001.62 1000.82 1000.01 999.19 998.38 997.57 996.77 995.97 995.18 994.38 993.58 992.78 991.99 991.23 990.51
1016.76 1016.45 1016.09 1015.70 1015.30 1014.90 1014.53 1014.17 1013.84 1013.51 1013.15 1012.76 1012.31 1011.80 1011.20 1010.54 1009.83 1009.08 1008.31 1007.55 1006.80 1006.08 1005.37 1004.68 1003.98 1003.28 1002.54 1001.78 1000.99 1000.18 999.34 998.50 997.67 996.84 996.02 995.22 994.42 993.63 992.83 992.04 991.25 990.47 989.72
1016.63 1016.29 1015.90 1015.48 1015.05 1014.63 1014.23 1013.86 1013.50 1013.15 1012.77 1012.35 1011.87 1011.31 1010.67 1009.97 1009.22 1008.43 1007.64 1006.86 1006.11 1005.39 1004.69 1004.02 1003.34 1002.65 1001.93 1001.17 1000.38 999.54 998.69 997.83 996.97 996.12 995.29 994.48 993.68 992.89 992.09 991.30 990.50 989.70 988.92
1016.50 1016.14 1015.73 1015.29 1014.83 1014.39 1013.97 1013.56 1013.17 1012.78 1012.37 1011.91 1011.38 1010.79 1010.11 1009.37 1008.59 1007.78 1006.97 1006.19 1005.44 1004.73 1004.05 1003.39 1002.73 1002.05 1001.34 1000.58 999.77 998.92 998.05 997.16 996.27 995.40 994.56 993.74 992.94 992.14 991.35 990.54 989.71 988.88 988.05
1016.38 1016.01 1015.58 1015.13 1014.66 1014.19 1013.73 1013.30 1012.87 1012.44 1011.98 1011.47 1010.90 1010.26 1009.55 1008.78 1007.97 1007.15 1006.34 1005.56 1004.82 1004.12 1003.46 1002.82 1002.17 1001.49 1000.78 1000.00 999.18 998.31 997.40 996.48 995.57 994.68 993.82 992.99 992.18 991.38 990.57 989.75 988.90 988.02 987.12
1016.26 1015.89 1015.46 1014.99 1014.51 1014.02 1013.54 1013.07 1012.60 1012.11 1011.60 1011.04 1010.43 1009.75 1009.01 1008.22 1007.40 1006.58 1005.77 1005.00 1004.28 1003.59 1002.94 1002.30 1001.65 1000.97 1000.23 999.44 998.59 997.69 996.75 995.81 994.87 993.96 993.09 992.25 991.43 990.62 989.80 988.95 988.07 987.14 986.18
Thickness
5699 5697 5695 5693 5691 5690 5688 5686 5684 5683 5682 5682 5681 5681 5680 5680 5680 5680 5681 5681 5680 5679 5676 5674 5672 5671 5670 5669 5668 5668 5667 5665 5664 5663 5662 5661 5661 5659 5658 5656 5654 5652 5650
5693 5690 5687 5685 5683 5681 5679 5677 5675 5673 5672 5672 5671 5672 5672 5672 5672 5672 5672 5672 5672 5672 5671 5669 5667 5666 5664 5664 5663 5662 5662 5661 5661 5660 5659 5657 5656 5655 5654 5652 5651 5648 5646
5687 5683 5679 5676 5673 5671 5669 5667 5664 5663 5662 5662 5662 5663 5663 5664 5664 5664 5664 5665 5665 5665 5664 5662 5661 5659 5658 5656 5655 5655 5654 5654 5653 5653 5653 5652 5651 5650 5648 5648 5647 5646 5644
5678 5674 5669 5665 5663 5661 5658 5655 5653 5652 5650 5650 5651 5652 5653 5654 5655 5656 5656 5656 5656 5654 5652 5651 5650 5648 5647 5646 5646 5646 5645 5644 5644 5644 5644 5643 5643 5643 5642 5642 5642 5642 5641
5666 5662 5658 5654 5652 5649 5646 5644 5642 5640 5638 5638 5639 5641 5641 5643 5644 5645 5644 5643 5640 5639 5637 5636 5634 5633 5632 5632 5631 5630 5630 5629 5629 5630 5631 5632 5632 5632 5633 5634 5635 5636 5636
5654 5650 5646 5642 5640 5637 5634 5631 5628 5626 5625 5624 5626 5628 5629 5632 5633 5631 5629 5628 5627 5625 5623 5620 5618 5615 5614 5612 5612 5612 5612 5612 5611 5612 5613 5615 5617 5619 5621 5622 5624 5626 5628
5642 5638 5635 5631 5628 5625 5621 5618 5616 5613 5611 5611 5611 5612 5617 5619 5617 5615 5611 5609 5608 5607 5605 5601 5598 5596 5594 5592 5590 5590 5591 5591 5591 5591 5592 5594 5596 5599 5602 5605 5608 5611 5616
5632 5627 5623 5620 5616 5613 5609 5606 5603 5600 5598 5597 5593 5593 5596 5601 5602 5596 5595 5593 5591 5589 5586 5583 5580 5577 5575 5572 5569 5566 5565 5567 5568 5569 5569 5569 5570 5573 5577 5582 5586 5591 5597
5620 5616 5612 5609 5605 5602 5597 5594 5591 5588 5584 5582 5577 5571 5565 5567 5575 5582 5579 5577 5574 5569 5565 5562 5560 5557 5552 5549 5545 5542 5540 5539 5540 5542 5543 5544 5544 5545 5547 5552 5557 5563 5570
5609 5605 5602 5598 5595 5590 5585 5581 5578 5573 5569 5565 5561 5556 5548 5545 5544 5552 5555 5553 5550 5547 5543 5541 5536 5531 5525 5521 5518 5515 5513 5510 5510 5510 5511 5512 5514 5515 5517 5520 5524 5531 5538
5600 5595 5592 5588 5584 5579 5573 5569 5564 5559 5554 5549 5543 5539 5535 5530 5526 5524 5530 5531 5527 5523 5519 5514 5508 5502 5496 5490 5485 5482 5479 5476 5474 5473 5473 5474 5476 5479 5482 5485 5490 5497 5506
5590 5586 5582 5578 5573 5568 5562 5557 5551 5545 5540 5534 5527 5521 5515 5510 5506 5502 5505 5511 5509 5505 5497 5489 5481 5473 5465 5457 5451 5446 5442 5438 5435 5433 5433 5435 5437 5440 5443 5447 5455 5464 5475
5580 5575 5571 5567 5562 5556 5550 5544 5537 5531 5526 5519 5512 5506 5500 5494 5488 5482 5479 5482 5486 5488 5479 5470 5458 5448 5436 5426 5418 5411 5406 5402 5398 5396 5396 5398 5401 5404 5408 5413 5422 5432 5443
5569 5565 5560 5555 5550 5544 5537 5531 5524 5517 5511 5504 5498 5490 5484 5478 5470 5462 5453 5448 5454 5464 5460 5450 5437 5423 5409 5395 5385 5376 5372 5368 5366 5365 5365 5367 5370 5375 5380 5386 5395 5405 5416
5560 5554 5548 5543 5537 5530 5524 5517 5509 5502 5496 5488 5481 5475 5468 5462 5454 5444 5432 5418 5408 5414 5429 5424 5409 5397 5382 5367 5357 5347 5344 5342 5340 5340 5341 5343 5346 5352 5358 5365 5373 5382 5393
5549 5542 5536 5529 5523 5516 5509 5501 5494 5487 5480 5474 5466 5460 5453 5445 5436 5424 5411 5398 5381 5367 5376 5387 5377 5369 5359 5347 5336 5326 5320 5318 5318 5318 5320 5323 5327 5333 5340 5347 5354 5363 5374
5536 5529 5523 5516 5508 5501 5494 5487 5479 5472 5466 5459 5450 5442 5434 5424 5414 5402 5389 5376 5361 5343 5336 5349 5344 5340 5334 5327 5321 5311 5303 5300 5300 5301 5302 5305 5310 5316 5323 5330 5337 5345 5355
5522 5515 5508 5501 5494 5487 5479 5472 5465 5458 5449 5440 5430 5421 5412 5402 5391 5378 5365 5352 5339 5326 5313 5315 5322 5316 5312 5306 5302 5296 5291 5287 5285 5284 5285 5288 5293 5298 5303 5311 5318 5326 5336
5508 5501 5493 5486 5478 5471 5464 5457 5450 5442 5431 5420 5409 5398 5388 5376 5366 5354 5342 5331 5320 5312 5302 5295 5298 5296 5293 5288 5283 5281 5278 5274 5271 5269 5269 5271 5274 5278 5284 5291 5299 5307 5315
5494 5486 5479 5471 5464 5457 5450 5443 5435 5425 5414 5401 5388 5375 5363 5352 5341 5331 5323 5315 5305 5298 5290 5283 5281 5280 5277 5273 5266 5263 5266 5265 5261 5255 5254 5256 5258 5262 5269 5274 5282 5289 5297
5480 5472 5465 5458 5450 5443 5436 5428 5418 5408 5394 5381 5368 5354 5342 5332 5322 5314 5307 5300 5291 5283 5275 5269 5266 5265 5262 5256 5251 5249 5249 5253 5254 5243 5244 5249 5247 5253 5257 5260 5266 5274 5283
5467 5460 5453 5445 5437 5429 5420 5410 5400 5388 5374 5359 5347 5337 5325 5316 5308 5302 5295 5288 5280 5270 5260 5254 5252 5248 5247 5243 5240 5238 5237 5238 5248 5243 5237 5246 5243 5248 5251 5254 5259 5266 5274
5455 5448 5440 5432 5423 5413 5403 5393 5381 5368 5353 5338 5325 5317 5310 5302 5293 5287 5284 5279 5271 5261 5250 5242 5239 5237 5235 5233 5231 5233 5233 5232 5236 5237 5236 5246 5246 5248 5250 5253 5256 5261 5269
5443 5435 5427 5418 5409 5398 5386 5374 5362 5348 5333 5319 5307 5298 5292 5288 5280 5274 5271 5265 5258 5251 5243 5237 5231 5229 5228 5228 5226 5228 5229 5233 5236 5235 5234 5242 5248 5250 5254 5255 5257 5262 5271
5430 5422 5413 5403 5393 5381 5368 5354 5340 5327 5315 5304 5295 5286 5278 5273 5269 5263 5256 5251 5249 5245 5240 5234 5229 5227 5227 5226 5225 5225 5227 5229 5237 5238 5235 5239 5249 5253 5258 5262 5265 5271 5280
5417 5408 5399 5387 5376 5364 5350 5335 5319 5306 5298 5292 5285 5277 5268 5261 5257 5251 5244 5241 5239 5238 5236 5233 5228 5226 5225 5224 5224 5222 5222 5226 5234 5240 5241 5242 5251 5255 5267 5274 5277 5279 5285